Location: Ab? ar R?sh Ba?r?
(24.1861°N, 32.8847°E)
Time: 10:59:56
(UTC+00:00)

Cosmos 2333 - Pass Details

Date: 24 October 2021
Orbit: 829 x 866 km, 70.9° (Epoch: 04 December)

Event Time Altitude Azimuth Distance (km) Brightness Sun altitude
Rises 15:59:49 0° 182° (S) 3,356 7.5 -11.0°
Reaches altitude 10° 16:02:20 10° 176° (S) 2,427 6.7 -11.6°
Maximum altitude 16:07:37 45° 104° (ESE) 1,115 4.4 -12.8°
Drops below altitude 10° 16:12:57 10° 33° (NNE) 2,454 6.2 -14.0°
Enters shadow 16:14:47 - 29° (NNE) 3,135 6.8 -14.4°
